Regional Weather Roundup
Issued by NWS

Home | Current Version | Previous Version | Text Only | Print | Product List | Glossary Off
Versions: 1 2 3 4 5 6 7 8 9 10 11 12 13 14 15 16 17 18 19 20 21 22 23 24 25 26 27 28 29 30 31 32 33 34 35 36 37 38 39 40 41 42 43 44 45 46 47 48 49 50

000
ASUS45 KCYS 040510
RWRWY

WYOMING REGIONAL WEATHER ROUNDUP
NATIONAL WEATHER SERVICE CHEYENNE WY
1100 PM MDT THU SEP 03 2015

NOTE:  "FAIR" INDICATES FEW OR NO CLOUDS BELOW 12,000 FEET
WITH NO SIGNIFICANT WEATHER AND/OR OBSTRUCTIONS TO VISIBILITY.

WYZ001-040600-
YELLOWSTONE NATIONAL PARK

CITY           SKY/WX    TMP DP  RH WIND       PRES   REMARKS
LK YELLOWSTONE   N/A     47  44  90 CALM      30.14R
W YELLOWSTONE  NOT AVBL

$$
WYZ002>013-054>058-071-098>099-040600-
NORTHERN WYOMING

CITY           SKY/WX    TMP DP  RH WIND       PRES   REMARKS
JACKSON        CLOUDY    59  43  55 E5        29.99F
CODY           FAIR      61  41  48 CALM      29.85F
GREYBULL       FAIR      70  43  37 NW8       29.74S
WORLAND        FAIR      61  41  47 SW8       29.78S
SHERIDAN       FAIR      64  41  42 SW7       29.84S
BUFFALO        FAIR      68  39  34 NW14G23   29.90S
GILLETTE       FAIR      78  42  27 W15       29.81R
HULETT         FAIR      72  48  43 CALM      29.81R
NEWCASTLE      FAIR      75  43  31 E20       29.83F

$$
WYZ014>020-022>026-101>103-040600-
CENTRAL WYOMING

CITY           SKY/WX    TMP DP  RH WIND       PRES   REMARKS
BIG PINEY      MOCLDY    58  37  45 MISG      30.00F
PINEDALE       MOCLDY    63  34  34 NW14G20   30.03F
DUBOIS         FAIR      57  34  41 MISG      30.02R
LANDER         FAIR      70  33  25 S17       29.86S
RIVERTON       FAIR      71  34  25 S14       29.88R
CASPER         FAIR      65  41  41 W8        29.92F
DOUGLAS        FAIR      62  54  74 E6        29.92R

$$
WYZ021-027>030-104>119-040600-
SOUTHERN WYOMING

CITY           SKY/WX    TMP DP  RH WIND       PRES   REMARKS
EVANSTON       FAIR      58  29  33 S9        30.00F
KEMMERER       FAIR      61  23  23 S7        30.02S
FORT BRIDGER   CLEAR     63  27  25 SW10      30.03F
ROCK SPRINGS   FAIR      63  38  39 SE20      30.00R
DIXON          FAIR      59  45  59 NE10      30.08F
RAWLINS        FAIR      58  44  60 SE9       30.06S
SARATOGA       FAIR      55  45  67 SE15      30.10F
LARAMIE        FAIR      47  32  56 S10       30.12S
CHEYENNE       FAIR      55  46  71 W7        30.02F
TORRINGTON     FAIR      69  50  50 SE7       29.88F
PINE BLUFFS    FAIR      57  46  67 SW6       29.98F

$$



USA.gov is the U.S. government's official web portal to all federal, state and local government web resources and services.